Location: ????
(33.1659°N, 35.6604°E)
Time: 15:38:21
(UTC+00:00)

Envisat - Pass Details

Date: 20 September 2019
Orbit: 764 x 766 km, 98.1° (Epoch: 17 October)

Event Time Altitude Azimuth Distance (km) Brightness Sun altitude
Rises 15:58:52 0° 170° (S) 3,216 6.1 -5.3°
Reaches altitude 10° 16:01:10 10° 172° (S) 2,294 5.4 -5.8°
Maximum altitude 16:06:13 75° 258° (WSW) 793 3.3 -6.8°
Drops below altitude 10° 16:11:18 10° 344° (NNW) 2,307 5.8 -7.9°
Sets 16:13:37 0° 346° (NNW) 3,237 6.5 -8.4°
